LiveATC.Net - Listen to live air traffic control over the Internet!


ICAO: FMEP  IATA: ZSE   Airport: Pierrefonds Airport
City: Saint-Pierre
Country: Reunion   Continent: Africa
FMEP METAR Weather: FMEP 222030Z AUTO 16007KT 110V220 CAVOK 23/17 Q1019
FMEP Flight Activity (FlightAware)
FMEP Info
Feed Status: DOWN
Last heard on: 2017-10-21 20:58:04 (1 days 0 hours 17 minutes ago)
FMEP Info Audio Archives
FacilityFrequency
Saint-Pierre Info122.400


NOTICE

Unauthorized use prohibited. See LiveATC.net Terms of Service


Find LiveATC Audio Streams


Airport/ARTCC Code

Frequency Search
(e.g., 124.400, 128.75)
Site-wide search
 


Browse LiveATC Feeds
LiveATC Coverage Map
Top 50 LiveATC Feeds
Bad Weather Areas

LiveATC FAQ
Offer a LiveATC Feed
Contact LiveATC.net
Press Inquiries

LiveATC on iPhone
LiveATC on Android

Windows Phone
Windows 8/10

LiveATC Mobile
(Mobile browser)

ATC Audio Archives
Interesting Recordings

LiveATC Forums


Home Page
About LiveATC.net
Make a Donation
LiveATC Store

Terms of Use
Privacy Policy

Canadian Air Freqs

AIRMETs/SIGMETs

FAA Airport Status
Nat'l Airspace Status
Arrival Demand Charts


Server Software By:
Icecast.org
Liquidsoap